Location: Champs
(48.8539°N, 2.6040°E)
Time: 22:04:45
(UTC+00:00)

deb Kosmos-2150 - Pass Details

Date: 24 August 2022
Orbit: 749 x 758 km, 74.1° (Epoch: 24 September)

Event Time Altitude Azimuth Distance (km) Brightness Sun altitude
Rises 03:44:47 0° 166° (SSE) 3,186 ? -11.3°
Reaches altitude 10° 03:47:28 10° 154° (SSE) 2,268 ? -10.9°
Maximum altitude 03:51:39 26° 99° (E) 1,470 ? -10.3°
Drops below altitude 10° 03:55:50 10° 45° (NE) 2,287 ? -9.7°
Sets 03:58:33 0° 33° (NNE) 3,219 ? -9.3°
